This is the latest recevied weather packets stored in our database for station/object KE2HEH. If no packets are shown the sender has not sent any weather packets the latest 10 day(s).
| Time | Temp. | Humidity | Pressure | Rain* | Wind** | Luminosity | Snow |
|---|---|---|---|---|---|---|---|
| 1777468014 | 13.33° C | 74% | 1016.3 hPa | 0 mm | - | 493 W/m² | - |
| 1777467710 | 13.33° C | 74% | 1016.5 hPa | 0 mm | - | 459 W/m² | - |
| 1777467406 | 12.78° C | 74% | 1016.6 hPa | 0 mm | - | 436 W/m² | - |
| 1777467102 | 12.78° C | 75% | 1016.7 hPa | 0 mm | - | 417 W/m² | - |
| 1777466799 | 12.78° C | 75% | 1016.7 hPa | 0 mm | - | 391 W/m² | - |
| 1777466497 | 12.78° C | 75% | 1017 hPa | 0 mm | - | 430 W/m² | - |
| 1777466193 | 12.78° C | 74% | 1016.9 hPa | 0 mm | - | 403 W/m² | - |
| 1777465889 | 12.22° C | 75% | 1017.2 hPa | 0 mm | - | 373 W/m² | - |
| 1777465586 | 12.22° C | 75% | 1017.1 hPa | 0 mm | - | 332 W/m² | - |
| 1777465281 | 12.22° C | 75% | 1017.1 hPa | 0 mm | - | 315 W/m² | - |
| 1777464975 | 12.22° C | 75% | 1017.1 hPa | 0 mm | - | 263 W/m² | - |
| 1777464670 | 12.22° C | 74% | 1017.1 hPa | 0 mm | - | 272 W/m² | - |
| 1777464367 | 12.22° C | 74% | 1017.1 hPa | 0 mm | - | 281 W/m² | - |
| 1777464062 | 11.67° C | 74% | 1017.1 hPa | 0 mm | - | 226 W/m² | - |
| 1777463757 | 12.22° C | 76% | 1017 hPa | 0 mm | - | 223 W/m² | - |
| 1777463452 | 11.67° C | 76% | 1017 hPa | 0 mm | - | 245 W/m² | - |
| 1777463148 | 11.67° C | 77% | 1017.3 hPa | 0 mm | - | 253 W/m² | - |
| 1777462845 | 11.67° C | 79% | 1017.3 hPa | 0 mm | - | 292 W/m² | - |
| 1777462540 | 11.67° C | 80% | 1017.2 hPa | 0 mm | - | 285 W/m² | - |
| 1777462236 | 11.11° C | 80% | 1017.4 hPa | 0 mm | - | 233 W/m² | - |
| 1777461933 | 11.11° C | 81% | 1017.3 hPa | 0 mm | - | 198 W/m² | - |
| 1777461630 | 11.11° C | 81% | 1017.4 hPa | 0 mm | - | 161 W/m² | - |
| 1777461330 | 11.11° C | 80% | 1017.5 hPa | 0 mm | - | 149 W/m² | - |
| 1777461026 | 11.11° C | 80% | 1017.6 hPa | 0 mm | - | 118 W/m² | - |
| 1777460722 | 11.11° C | 81% | 1017.7 hPa | 0 mm | - | 94 W/m² | - |
* Rain latest hour (hover to see other rain measurements)
** Current wind speed in m/s (hover to see current wind gust speed)